Terug naar catalogus

H-2A DEB *

ActiefSSO
NORAD 48551·DEBRIS·🇯🇵 Japan

Gelanceerd Oct 29, 2018 vanaf Tanegashima Space Center

Loading…

Volgende Passages (komende 24 uur)

TLE

VersSource: Space-Track

Epoch: Sep 14, 2026, 08:23 UTC

1 48551U 18084DF  26257.34947722  .00000783  00000-0  14969-3 0  9994
2 48551  97.9326 124.6767 0030703  77.6518 282.8121 14.66238498295125

Volg H-2A DEB * in realtime met AllMySat

Download on the App Store